MESAT1

Last updated on Sun Apr 12 2026 00:03:15 GMT+0000 (Coordinated Universal Time)

1 60209U 24125G 26101.06519439 .00049075 00000+0 67892-3 0 9997 2 60209 97.2411 317.3187 0012598 106.5413 253.7228 15.56886578 99105
UTC large
Height (km)
Speed (km/s)
/
Latitude / Longitude
Inclination (degrees)
Orbital Period (minutes)
Azimuth
Elevation
Range (km)
Doppler Factor

Next 0 passes for location: London (51.5072 / 0.1276)

Sorry there are no passes over London.
MESAT1